GW3646 Weather Reports


Display with metric or nautical units.
time (UTC)temp
F
wind
direction
speed
MPH
gust
MPH
rain 1hr
in
rain 24hr
in
rain mn
in
humidity
%
barometer
mb
20260509162505 81 210 2.0 7.0 0.00 0.00 0.00 31 1011.5
20260509162003 81 240 2.0 7.0 0.00 0.00 0.00 29 1011.5
20260509161516 80 149 0.0 5.0 0.00 0.00 0.00 35 1011.5
20260509161006 80 284 1.0 9.0 0.00 0.00 0.00 33 1011.5
20260509160507 79 139 1.0 9.0 0.00 0.00 0.00 32 1011.4
20260509160016 79 259 1.0 10.0 0.00 0.00 0.00 37 1011.5
20260509155508 79 246 2.0 10.0 0.00 0.00 0.00 34 1011.4
20260509155008 79 258 3.0 8.0 0.00 0.00 0.00 34 1011.3
20260509154522 78 254 1.0 4.0 0.00 0.00 0.00 37 1011.4
20260509154009 77 215 1.0 7.0 0.00 0.00 0.00 38 1011.5
20260509153509 77 281 2.0 7.0 0.00 0.00 0.00 39 1011.5
20260509153026 76 249 1.0 5.0 0.00 0.00 0.00 41 1011.4
20260509152504 76 228 0.0 3.0 0.00 0.00 0.00 46 1011.4
20260509152005 75 221 0.0 3.0 0.00 0.00 0.00 46 1011.4
20260509151508 74 247 0.0 4.0 0.00 0.00 0.00 50 1011.4
20260509151004 73 255 0.0 4.0 0.00 0.00 0.00 51 1011.5
20260509150504 72 207 0.0 5.0 0.00 0.00 0.00 53 1011.5
20260509150015 71 210 1.0 5.0 0.00 0.00 0.00 54 1011.4
20260509145509 71 227 1.0 4.0 0.00 0.00 0.00 58 1011.4
20260509145009 70 232 1.0 4.0 0.00 0.00 0.00 57 1011.3
20260509144518 69 238 0.0 5.0 0.00 0.00 0.00 63 1011.3
20260509144006 68 241 2.0 5.0 0.00 0.00 0.00 61 1011.3
20260509143507 67 268 1.0 5.0 0.00 0.00 0.00 63 1011.4
20260509143028 67 244 1.0 5.0 0.00 0.00 0.00 63 1011.4
20260509142509 66 249 1.0 4.0 0.00 0.00 0.00 64 1011.4
20260509142009 65 256 0.0 3.0 0.00 0.00 0.00 68 1011.4
20260509141530 65 256 0.0 4.0 0.00 0.00 0.00 69 1011.3
20260509141009 64 242 0.0 4.0 0.00 0.00 0.00 68 1011.3
20260509140503 63 250 1.0 4.0 0.00 0.00 0.00 70 1011.3
20260509140013 63 236 0.0 4.0 0.00 0.00 0.00 73 1011.3
20260509135505 62 241 0.0 2.0 0.00 0.00 0.00 74 1011.4
20260509135007 61 281 0.0 5.0 0.00 0.00 0.00 76 1011.3
20260509134516 60 235 0.0 5.0 0.00 0.00 0.00 77 1011.3
20260509134006 59 222 1.0 4.0 0.00 0.00 0.00 79 1011.4
20260509133506 58 292 0.0 4.0 0.00 0.00 0.00 83 1011.4
20260509133020 56 254 1.0 7.0 0.00 0.00 0.00 86 1011.4
20260509132509 55 263 0.0 7.0 0.00 0.00 0.00 89 1011.4
20260509132011 54 30 0.0 4.0 0.00 0.00 0.00 92 1011.4
20260509131530 53 20 0.0 3.0 0.00 0.00 0.00 95 1011.4
20260509131013 52 17 0.0 3.0 0.00 0.00 0.00 96 1011.4
20260509130514 51 23 0.0 3.0 0.00 0.00 0.00 96 1011.3
20260509130026 50 175 0.0 0.0 0.00 0.00 0.00 96 1011.3
20260509125508 49 175 0.0 0.0 0.00 0.00 0.00 96 1011.3
20260509125002 49 175 0.0 0.0 0.00 0.00 0.00 95 1011.2
20260509124514 48 175 0.0 0.0 0.00 0.00 0.00 95 1011.1
20260509124008 47 175 0.0 0.0 0.00 0.00 0.00 95 1011.0
20260509123507 47 175 0.0 0.0 0.00 0.00 0.00 95 1011.0
20260509123020 47 175 0.0 0.0 0.00 0.00 0.00 95 1011.0
20260509122508 46 175 0.0 0.0 0.00 0.00 0.00 94 1010.9
20260509122006 46 175 0.0 0.0 0.00 0.00 0.00 94 1010.9
20260509121527 46 175 0.0 0.0 0.00 0.00 0.00 94 1010.8
20260509121007 46 175 0.0 0.0 0.00 0.00 0.00 94 1010.8
20260509120509 46 175 0.0 0.0 0.00 0.00 0.00 94 1010.8
20260509120027 46 175 0.0 0.0 0.00 0.00 0.00 94 1010.8
20260509115506 46 175 0.0 0.0 0.00 0.00 0.00 93 1010.8
20260509115011 46 175 0.0 0.0 0.00 0.00 0.00 93 1010.7
20260509114526 46 175 0.0 0.0 0.00 0.00 0.00 93 1010.7
20260509114010 46 175 0.0 0.0 0.00 0.00 0.00 93 1010.6
20260509113507 46 175 0.0 0.0 0.00 0.00 0.00 93 1010.5
20260509113016 46 175 0.0 0.0 0.00 0.00 0.00 93 1010.4
20260509112506 46 175 0.0 0.0 0.00 0.00 0.00 93 1010.4
20260509112007 46 175 0.0 0.0 0.00 0.00 0.00 93 1010.3
20260509111518 46 175 0.0 0.0 0.00 0.00 0.00 93 1010.4
20260509111008 46 175 0.0 0.0 0.00 0.00 0.00 93 1010.3
20260509110506 47 175 0.0 0.0 0.00 0.00 0.00 93 1010.2
20260509110024 47 175 0.0 0.0 0.00 0.00 0.00 93 1010.2
20260509105510 47 175 0.0 0.0 0.00 0.00 0.00 93 1010.4
20260509105010 47 175 0.0 0.0 0.00 0.00 0.00 93 1010.4
20260509104526 47 175 0.0 2.0 0.00 0.00 0.00 93 1010.4
20260509104006 47 175 0.0 2.0 0.00 0.00 0.00 93 1010.4
20260509103511 47 122 0.0 2.0 0.00 0.00 0.00 93 1010.4
20260509103025 47 24 0.0 0.0 0.00 0.00 0.00 93 1010.5
20260509102512 47 24 0.0 0.0 0.00 0.00 0.00 93 1010.4
20260509102006 47 24 0.0 0.0 0.00 0.00 0.00 93 1010.5
20260509101520 47 24 0.0 0.0 0.00 0.00 0.00 93 1010.6
20260509101008 47 24 0.0 0.0 0.00 0.00 0.00 93 1010.5
20260509100506 47 24 0.0 0.0 0.00 0.00 0.00 93 1010.6
20260509100021 47 24 0.0 0.0 0.00 0.00 0.00 93 1010.6
20260509095507 46 24 0.0 0.0 0.00 0.00 0.00 93 1010.6
20260509095007 46 24 0.0 0.0 0.00 0.00 0.00 93 1010.6
20260509094523 46 24 0.0 0.0 0.00 0.00 0.00 92 1010.5
20260509094010 47 24 0.0 0.0 0.00 0.00 0.00 93 1010.6
20260509093508 46 24 0.0 0.0 0.00 0.00 0.00 93 1010.4
20260509093028 46 24 0.0 0.0 0.00 0.00 0.00 92 1010.6
20260509092509 46 24 0.0 0.0 0.00 0.00 0.00 92 1010.5
20260509092004 46 24 0.0 0.0 0.00 0.00 0.00 92 1010.6
20260509091526 46 24 0.0 0.0 0.00 0.00 0.00 92 1010.5
20260509091008 47 24 0.0 0.0 0.00 0.00 0.00 92 1010.5
20260509090508 47 24 0.0 0.0 0.00 0.00 0.00 91 1010.6
20260509090020 47 24 0.0 0.0 0.00 0.00 0.00 91 1010.6
20260509085508 47 24 0.0 0.0 0.00 0.00 0.00 91 1010.5
20260509085007 47 24 0.0 0.0 0.00 0.00 0.00 91 1010.5
20260509084516 47 24 0.0 0.0 0.00 0.00 0.00 91 1010.4
20260509084004 47 24 0.0 0.0 0.00 0.00 0.00 91 1010.5
20260509083503 47 24 0.0 0.0 0.00 0.00 0.00 91 1010.6
20260509083008 47 24 0.0 0.0 0.00 0.00 0.00 90 1010.7
20260509082503 47 24 0.0 0.0 0.00 0.00 0.00 90 1010.7
20260509082003 47 24 0.0 0.0 0.00 0.00 0.00 90 1010.7
20260509081511 48 24 0.0 0.0 0.00 0.00 0.00 90 1010.6
20260509081003 48 24 0.0 0.0 0.00 0.00 0.00 90 1010.6
20260509080506 48 24 0.0 0.0 0.00 0.00 0.00 90 1010.6
20260509080024 48 24 0.0 0.0 0.00 0.00 0.00 90 1010.6
20260509075505 48 24 0.0 0.0 0.00 0.00 0.00 91 1010.7
20260509075010 48 24 0.0 0.0 0.00 0.00 0.00 90 1010.6
20260509074522 48 24 0.0 0.0 0.00 0.00 0.00 91 1010.7
20260509074007 48 24 0.0 0.0 0.00 0.00 0.00 91 1010.7
20260509073508 48 24 0.0 0.0 0.00 0.00 0.00 91 1010.7
20260509073041 48 24 0.0 0.0 0.00 0.00 0.00 91 1010.8
20260509072503 48 24 0.0 0.0 0.00 0.00 0.00 90 1010.7
20260509072002 48 24 0.0 0.0 0.00 0.00 0.00 90 1010.7
20260509071506 48 24 0.0 0.0 0.00 0.00 0.00 90 1010.7
20260509071004 48 24 0.0 0.0 0.00 0.00 0.00 89 1010.7
20260509070503 48 24 0.0 0.0 0.00 0.00 0.00 89 1010.6
20260509070016 48 24 0.0 0.0 0.00 0.00 0.00 89 1010.6
20260509065510 48 24 0.0 0.0 0.00 0.00 0.00 88 1010.6
20260509065004 48 24 0.0 0.0 0.00 0.00 0.00 88 1010.7
20260509064518 48 24 0.0 0.0 0.00 0.00 0.00 88 1010.7
20260509064009 48 24 0.0 0.0 0.00 0.00 0.00 86 1010.7
20260509063508 48 24 0.0 0.0 0.00 0.00 0.00 86 1010.7
20260509063028 48 24 0.0 0.0 0.00 0.00 0.00 85 1010.7
20260509062510 48 24 0.0 0.0 0.00 0.00 0.00 85 1010.8
20260509062011 48 24 0.0 0.0 0.00 0.00 0.00 84 1010.8
20260509061526 48 24 0.0 0.0 0.00 0.00 0.00 85 1010.7
20260509061004 48 24 0.0 0.0 0.00 0.00 0.00 84 1010.7
20260509060506 48 24 0.0 0.0 0.00 0.00 0.00 84 1010.6
20260509060015 49 24 0.0 0.0 0.00 0.00 0.00 83 1010.6
20260509055506 49 24 0.0 0.0 0.00 0.00 0.00 83 1010.6
20260509055005 49 24 0.0 0.0 0.00 0.00 0.00 83 1010.6
20260509054527 49 24 0.0 0.0 0.00 0.00 0.00 83 1010.6
20260509054007 49 24 0.0 0.0 0.00 0.00 0.00 83 1010.6
20260509053507 49 24 0.0 0.0 0.00 0.00 0.00 83 1010.6
20260509053020 50 24 0.0 0.0 0.00 0.00 0.00 81 1010.7
20260509052507 50 24 0.0 0.0 0.00 0.00 0.00 81 1010.7
20260509052006 50 24 0.0 0.0 0.00 0.00 0.00 81 1010.7
20260509051524 50 24 0.0 0.0 0.00 0.00 0.00 81 1010.8
20260509051007 50 24 0.0 0.0 0.00 0.00 0.00 81 1010.8
20260509050511 50 24 0.0 0.0 0.00 0.00 0.00 80 1010.8
20260509050036 50 24 0.0 0.0 0.00 0.00 0.00 80 1010.9
20260509045504 51 24 0.0 0.0 0.00 0.00 0.00 79 1010.8
20260509045004 51 24 0.0 0.0 0.00 0.00 0.00 78 1010.9
20260509044514 51 24 0.0 0.0 0.00 0.00 0.00 78 1010.9
20260509044007 51 24 0.0 0.0 0.00 0.00 0.00 77 1010.9
20260509043506 51 24 0.0 0.0 0.00 0.00 0.00 77 1010.9
20260509043033 52 24 0.0 0.0 0.00 0.00 0.00 77 1010.9
20260509042507 52 24 0.0 0.0 0.00 0.00 0.00 77 1010.8
20260509042007 52 24 0.0 0.0 0.00 0.00 0.00 76 1010.8
20260509041522 53 24 0.0 0.0 0.00 0.00 0.00 77 1010.8
20260509041012 53 24 0.0 0.0 0.00 0.00 0.00 76 1010.8
20260509040507 53 24 0.0 0.0 0.00 0.00 0.00 76 1010.8
20260509040025 53 24 0.0 0.0 0.00 0.00 0.00 75 1010.8
20260509035509 54 24 0.0 0.0 0.00 0.00 0.00 75 1010.8
20260509035008 54 24 0.0 0.0 0.00 0.00 0.00 74 1010.7
20260509034528 54 24 0.0 0.0 0.00 0.00 0.00 73 1010.7
20260509034010 55 24 0.0 0.0 0.00 0.00 0.00 73 1010.7
20260509033505 55 24 0.0 0.0 0.00 0.00 0.00 72 1010.6
20260509033012 55 24 0.0 0.0 0.00 0.00 0.00 71 1010.5
20260509032506 56 24 0.0 0.0 0.00 0.00 0.00 70 1010.4
20260509032005 56 24 0.0 0.0 0.00 0.00 0.00 68 1010.4
20260509031521 57 24 0.0 0.0 0.00 0.00 0.00 68 1010.4
20260509031007 57 24 0.0 0.0 0.00 0.00 0.00 67 1010.4
20260509030508 58 24 0.0 0.0 0.00 0.00 0.00 66 1010.4
20260509030033 58 24 0.0 0.0 0.00 0.00 0.00 65 1010.3
20260509025506 59 24 0.0 0.0 0.00 0.00 0.00 64 1010.2
20260509025007 59 24 0.0 0.0 0.00 0.00 0.00 63 1010.2
20260509024526 60 24 0.0 0.0 0.00 0.00 0.00 61 1010.1
20260509024011 60 24 0.0 0.0 0.00 0.00 0.00 60 1010.0
20260509023510 61 24 0.0 0.0 0.00 0.00 0.00 59 1010.0
20260509023029 62 24 0.0 0.0 0.00 0.00 0.00 58 1009.9
20260509022510 63 24 0.0 0.0 0.00 0.00 0.00 56 1009.9
20260509022010 63 24 0.0 0.0 0.00 0.00 0.00 55 1009.8
20260509021519 64 24 0.0 0.0 0.00 0.00 0.00 54 1009.8
20260509021010 65 24 0.0 0.0 0.00 0.00 0.00 52 1009.8
20260509020510 65 24 0.0 0.0 0.00 0.00 0.00 51 1009.7
20260509020020 66 24 0.0 0.0 0.00 0.00 0.00 50 1009.7
20260509015509 67 24 0.0 0.0 0.00 0.00 0.00 48 1009.6
20260509015008 67 24 0.0 0.0 0.00 0.00 0.00 47 1009.5
20260509014528 68 24 0.0 0.0 0.00 0.00 0.00 46 1009.4
20260509014006 69 24 0.0 0.0 0.00 0.00 0.00 44 1009.4
20260509013511 69 24 0.0 1.0 0.00 0.00 0.00 44 1009.2
20260509013043 70 24 0.0 1.0 0.00 0.00 0.00 43 1009.1
20260509012509 70 24 0.0 1.0 0.00 0.00 0.00 43 1009.1
20260509012008 71 24 0.0 3.0 0.00 0.00 0.00 42 1009.0
20260509011528 71 24 0.0 3.0 0.00 0.00 0.00 41 1009.0
20260509011009 71 53 0.0 4.0 0.00 0.00 0.00 41 1009.0
20260509010504 71 62 1.0 4.0 0.00 0.00 0.00 41 1008.9
20260509010024 72 55 1.0 5.0 0.00 0.00 0.00 41 1009.0
20260509005509 72 52 0.0 5.0 0.00 0.00 0.00 41 1008.9
20260509005006 72 44 0.0 4.0 0.00 0.00 0.00 41 1008.9
20260509004538 72 46 1.0 7.0 0.00 0.00 0.00 40 1008.8
20260509004008 73 61 2.0 7.0 0.00 0.00 0.00 40 1008.7
20260509003511 73 70 1.0 8.0 0.00 0.00 0.00 40 1008.6
20260509003032 73 69 3.0 8.0 0.00 0.00 0.00 39 1008.6
20260509002509 73 71 2.0 7.0 0.00 0.00 0.00 39 1008.4
20260509002004 74 98 1.0 13.0 0.00 0.00 0.00 42 1008.3
20260509001510 74 71 3.0 13.0 0.00 0.00 0.00 41 1008.2
20260509001003 74 65 3.0 9.0 0.00 0.00 0.00 41 1008.1
20260509000503 74 48 3.0 9.0 0.00 0.00 0.00 41 1008.1
20260509000010 75 15 3.0 9.0 0.00 0.00 0.00 40 1008.0
20260508235503 75 55 1.0 7.0 0.00 0.00 0.00 40 1008.1
20260508235004 75 81 2.0 8.0 0.00 0.00 0.00 41 1007.9
20260508234510 75 63 3.0 9.0 0.00 0.00 0.00 39 1007.9
20260508234003 76 309 1.0 9.0 0.00 0.00 0.00 38 1007.8
20260508233503 76 30 1.0 9.0 0.00 0.00 0.00 37 1007.8
20260508233003 76 59 3.0 9.0 0.00 0.00 0.00 39 1007.8
20260508232502 77 81 2.0 8.0 0.00 0.00 0.00 40 1007.7
20260508232003 77 5 1.0 8.0 0.00 0.00 0.00 41 1007.7
20260508231508 77 77 2.0 8.0 0.00 0.00 0.00 41 1007.6
20260508231004 77 244 3.0 10.0 0.00 0.00 0.00 41 1007.6
20260508230504 78 18 2.0 10.0 0.00 0.00 0.00 41 1007.5
20260508230033 78 5 2.0 5.0 0.00 0.00 0.00 42 1007.6
20260508225503 77 341 0.0 6.0 0.00 0.00 0.00 42 1007.5
20260508225006 77 72 3.0 6.0 0.00 0.00 0.00 39 1007.6
20260508224513 78 341 2.0 8.0 0.00 0.00 0.00 39 1007.6
20260508224004 77 257 3.0 8.0 0.00 0.00 0.00 40 1007.6
20260508223503 77 76 3.0 8.0 0.00 0.00 0.00 39 1007.5
20260508223017 78 70 2.0 10.0 0.00 0.00 0.00 39 1007.4
20260508222504 78 97 3.0 10.0 0.00 0.00 0.00 39 1007.5
20260508222003 78 5 3.0 9.0 0.00 0.00 0.00 37 1007.5
20260508221506 78 82 3.0 8.0 0.00 0.00 0.00 37 1007.3
20260508221005 78 57 2.0 8.0 0.00 0.00 0.00 37 1007.4
20260508220503 78 5 1.0 5.0 0.00 0.00 0.00 39 1007.5
20260508220015 78 75 2.0 5.0 0.00 0.00 0.00 37 1007.4
20260508215507 78 61 2.0 5.0 0.00 0.00 0.00 38 1007.5
20260508215004 78 59 2.0 6.0 0.00 0.00 0.00 42 1007.5
20260508214516 78 81 1.0 6.0 0.00 0.00 0.00 41 1007.5
20260508214003 77 42 1.0 10.0 0.00 0.00 0.00 42 1007.5
20260508213503 77 79 2.0 10.0 0.00 0.00 0.00 44 1007.5
20260508213020 77 279 2.0 9.0 0.00 0.00 0.00 43 1007.4
20260508212504 76 335 2.0 7.0 0.00 0.00 0.00 45 1007.3
20260508212004 75 88 1.0 5.0 0.00 0.00 0.00 46 1007.3
20260508211517 74 69 1.0 7.0 0.00 0.00 0.00 47 1007.2
20260508211007 74 36 2.0 7.0 0.00 0.00 0.00 47 1007.2
20260508210507 73 9 1.0 4.0 0.00 0.00 0.00 50 1007.3
20260508210007 73 314 0.0 3.0 0.00 0.00 0.00 52 1007.2
20260508205504 73 67 1.0 4.0 0.00 0.00 0.00 52 1007.3
20260508205005 73 65 1.0 4.0 0.00 0.00 0.00 52 1007.5
20260508204510 72 15 1.0 3.0 0.00 0.00 0.00 50 1007.8
20260508204002 72 267 1.0 5.0 0.00 0.00 0.00 50 1008.1
20260508203505 72 352 0.0 6.0 0.00 0.00 0.00 51 1008.2
20260508203018 71 292 1.0 6.0 0.00 0.00 0.00 51 1007.9
20260508202510 72 17 1.0 6.0 0.00 0.00 0.00 52 1007.9
20260508202007 72 19 2.0 4.0 0.00 0.00 0.00 52 1007.9
20260508201516 72 349 1.0 4.0 0.00 0.00 0.00 51 1007.9
20260508201004 71 333 1.0 8.0 0.00 0.00 0.00 50 1007.9
20260508200504 71 57 1.0 8.0 0.00 0.00 0.00 51 1007.9
20260508200018 71 17 2.0 7.0 0.00 0.00 0.00 52 1008.1
20260508195505 71 5 2.0 7.0 0.00 0.00 0.00 51 1008.3
20260508195011 71 343 0.0 5.0 0.00 0.00 0.00 52 1008.3
20260508194508 72 350 1.0 8.0 0.00 0.00 0.00 51 1008.2
20260508194004 72 5 1.0 9.0 0.00 0.00 0.00 51 1008.3
20260508193506 72 40 2.0 10.0 0.00 0.00 0.00 50 1008.3
20260508193012 73 11 0.0 10.0 0.00 0.00 0.00 52 1008.6
20260508192506 73 36 1.0 9.0 0.00 0.00 0.00 51 1008.4
20260508192006 73 309 2.0 9.0 0.00 0.00 0.00 53 1008.6
20260508191524 73 294 0.0 4.0 0.00 0.00 0.00 52 1008.2
20260508191005 73 248 1.0 4.0 0.00 0.00 0.00 50 1008.2
20260508190504 73 349 1.0 4.0 0.00 0.00 0.00 50 1008.3
20260508190022 73 240 1.0 4.0 0.00 0.00 0.00 49 1007.9
20260508185504 73 207 0.0 7.0 0.00 0.00 0.00 49 1007.8
20260508185010 74 207 0.0 8.0 0.00 0.00 0.00 47 1007.9
20260508184537 74 183 2.0 8.0 0.00 0.00 0.00 46 1008.3
20260508184009 74 234 2.0 8.0 0.00 0.00 0.00 46 1008.6
20260508183508 75 261 2.0 8.0 0.00 0.00 0.00 45 1008.4
20260508183007 75 268 0.0 7.0 0.00 0.00 0.00 46 1008.3
20260508182504 76 227 3.0 9.0 0.00 0.00 0.00 43 1008.8
20260508182006 77 254 1.0 10.0 0.00 0.00 0.00 43 1008.5
20260508181535 77 175 2.0 10.0 0.00 0.00 0.00 43 1008.8
20260508181007 77 246 2.0 9.0 0.00 0.00 0.00 44 1008.9
20260508180507 76 71 1.0 9.0 0.00 0.00 0.00 46 1009.0
20260508180023 75 360 3.0 9.0 0.00 0.00 0.00 46 1009.1
20260508175508 74 250 3.0 9.0 0.00 0.00 0.00 47 1009.2
20260508175011 74 217 3.0 10.0 0.00 0.00 0.00 47 1009.2
20260508174519 74 265 2.0 10.0 0.00 0.00 0.00 46 1009.2
20260508174008 74 352 3.0 12.0 0.00 0.00 0.00 46 1009.3
20260508173507 74 60 2.0 12.0 0.00 0.00 0.00 48 1009.3
20260508173020 74 219 3.0 12.0 0.00 0.00 0.00 47 1009.4
20260508172515 74 248 5.0 12.0 0.00 0.00 0.00 46 1009.2
20260508172008 74 261 2.0 10.0 0.00 0.00 0.00 47 1009.2
20260508171514 74 273 3.0 10.0 0.00 0.00 0.00 46 1009.2
20260508171009 75 307 3.0 9.0 0.00 0.00 0.00 46 1009.2
20260508170503 75 314 2.0 9.0 0.00 0.00 0.00 48 1009.2
20260508170016 74 29 1.0 11.0 0.00 0.00 0.00 49 1009.1
20260508165506 74 243 1.0 11.0 0.00 0.00 0.00 48 1009.2
20260508165006 74 251 2.0 11.0 0.00 0.00 0.00 48 1009.2
20260508164520 74 219 3.0 11.0 0.00 0.00 0.00 50 1009.1
20260508164010 73 340 2.0 10.0 0.00 0.00 0.00 50 1009.2
20260508163509 73 248 2.0 10.0 0.00 0.00 0.00 48 1009.2
20260508163024 73 228 3.0 9.0 0.00 0.00 0.00 50 1009.4